STARLINK-3653, 52000

Orbit data source: Space-Track

STARLINK-3653, 52000 is a payload satellite owned by SpaceX/Seattle (US) in LEO that was launched on Wed, 09 Mar 2022 UTC via an FALCON 9 launch vehicle from the Air Force Eastern Test Range (AFETR). Payload-class satellites include a variety of spacecraft equipped with specific instruments for various scientific and technological missions. These include communications satellites like Starlink; space stations such as the ISS; scientific satellites like the Hubble; Earth observation satellites from companies like Planet Labs, Umbra, and HawkEye 360; GPS; miniature CubeSats for education and research; and military/defense satellites.

Loading next visibility...
Identifier
52000, 2022-025AW
Orbit
LEO
Country
Flag of USUS
Related business
Manufacturer
SpaceX/Seattle
Mission
Operational Commercial Communications
Bus & Motor
STARLINK, Unknown motor
Mass
297 kg wet, ~275 kg dry
Launch date (UTC)
2022-03-09 (4 years ago)
Launch vehicle
FALCON 9
Launch site
Air Force Eastern Test Range (AFETR)
Object type
Payload
Rocket body
Debris
Shape & HBR
Box + 1 Pan, 10.1 m
Radar Cross Section
13.562 m², Large (>1 m²)

Expand to show TLE details & history
Last TLE update: 3 days ago

TLE from 3 days ago
0 STARLINK-3653
1 52000U 22025AW  26170.62688094  .00004007  00000-0  26983-3 0  9999
2 52000  53.1607 281.3067 0001061  69.0739 291.0366 15.08822496236317
Epoch: 2026-06-19T15:02Z
TLE epoch observation values (Epoch: 2026-06-19T15:02:42.513Z)
Latitude
-0°
Longitude
147.77641°
Altitude
540.425 km
Speed
7.593 km/s
True Right ascension
18h 45m 13s
True Declination
0° 00' 00"
Sunlit
Object was in full shadow at epoch
Visualization orbit readout
Latitude
Unknown
Longitude
Unknown
Altitude
Unknown
Speed
Unknown
Apparent Right ascension
Unknown
Apparent Declination
Unknown
Sunlit
N/A
Visualization observer readout
Local Sidereal Time
21:45:57
Azimuth
Unknown
Elevation
Unknown
Doppler factor
Unknown
Orbital elements
Apogee altitude
540.785 km
Perigee altitude
539.317 km
Semi-major axis
6,918.188 km
Eccentricity
0.00011
Inclination
53.1607°
RAAN
281.3067°
Arg. of periapsis
69.0739°
True anomaly
291.02525°
Mean anomaly
291.0366°
Eccentric anomaly
291.03093°
Mean motion
3.77185 °/min
Orbital period
95.44 mins
BSTAR
0.00026983
Loading maneuver chart data...
Computing Atmospheric mass density...

Documentation

Showing up to 5 results
|